Weather History for Big Rapids, MI

Change the Weather History Date:

Thursday, February 7, 2013

  Actual Average Record
Temperature  
Mean Temperature 28 °F -  
Max Temperature 30 °F 29 °F 48 °F (2009)
Min Temperature 27 °F 8 °F -18 °F (2007)
Degree Days  
Heating Degree Days 36    
Moisture  
Dew Point 25 °F    
Average Humidity 85    
Maximum Humidity 94    
Minimum Humidity 65    
Precipitation  
Precipitation 0.00 in - - ()
Sea Level Pressure  
Sea Level Pressure 30.04 in    
Wind  
Wind Speed 5 mph (ESE)    
Max Wind Speed 9 mph    
Max Gust Speed -    
Visibility 3 miles    
Events Snow    
Averages and records for this station are not official NWS values.
T = Trace of Precipitation, MM = Missing Value Source: NWS Daily Summary

Daily Weather History Graph

Daily Weather History Graph

Search for Another Location

Airport:

Trip Planner

Search our weather history database for the weather conditions in past years. The results will help you decide how hot, cold, wet, or windy it might be!

Date:

Astronomy

Feb. 07, 2013 Rise Set
Actual Time 7:51 AM EST 6:01 PM EST
Civil Twilight 7:21 AM EST 6:31 PM EST
Nautical Twilight 6:47 AM EST 7:05 PM EST
Astronomical Twilight 6:13 AM EST 7:39 PM EST
Moon 5:33 AM EST (2/7) 3:22 PM EST (2/7)
Length of Visible Light 11h 10m
Length of Day
10h 10m
Waning Crescent, 9% of the Moon is Illuminated
Feb 7
Waning Crescent
Feb 10
New
Feb 17
First Quarter
Feb 25
Full
Mar 4
Last Quarter

Hourly Weather History & Observations

Time (EST) Temp. Windchill Dew Point Humidity Pressure Visibility Wind Dir Wind Speed Gust Speed Precip Events Conditions
12:14 AM 29.1 °F - 18.5 °F 65% 30.17 in 10.0 mi Calm Calm - N/A   Overcast
12:34 AM 29.1 °F - 18.5 °F 65% 30.18 in 10.0 mi Calm Calm - N/A   Overcast
12:55 AM 29.1 °F 25.4 °F 18.9 °F 66% 30.17 in 10.0 mi SE 3.5 mph - N/A   Overcast
1:14 AM 28.8 °F 23.7 °F 19.6 °F 69% 30.15 in 5.0 mi SE 4.6 mph - N/A Snow Light Snow
1:34 AM 28.9 °F 22.8 °F 19.6 °F 68% 30.15 in 10.0 mi SSE 5.8 mph - N/A   Overcast
1:54 AM 28.6 °F 19.9 °F 20.7 °F 72% 30.15 in 4.0 mi SSE 9.2 mph - N/A Snow Light Snow
2:14 AM 28.4 °F 20.4 °F 22.5 °F 78% 30.15 in 4.0 mi South 8.1 mph - N/A Snow Light Snow
2:34 AM 27.5 °F 19.3 °F 23.4 °F 84% 30.16 in 2.0 mi South 8.1 mph - N/A Snow Light Snow
2:54 AM 27.5 °F 20.2 °F 24.1 °F 87% 30.15 in 2.0 mi South 6.9 mph - N/A Snow Light Snow
3:14 AM 27.3 °F 19.9 °F 24.4 °F 89% 30.15 in 2.5 mi SSE 6.9 mph - N/A Snow Light Snow
3:34 AM 27.3 °F 22.0 °F 25.2 °F 92% 30.15 in 1.8 mi SSE 4.6 mph - N/A Snow Light Snow
3:54 AM 27.3 °F 20.9 °F 25.5 °F 93% 30.13 in 2.0 mi SSE 5.8 mph - N/A Snow Light Snow
4:14 AM 27.3 °F 19.9 °F 25.5 °F 93% 30.13 in 2.0 mi SSE 6.9 mph - N/A Snow Light Snow
4:34 AM 27.5 °F 22.2 °F 25.7 °F 93% 30.12 in 1.8 mi SSE 4.6 mph - N/A Snow Light Snow
4:54 AM 27.3 °F 19.9 °F 25.5 °F 93% 30.12 in 1.8 mi SSE 6.9 mph - N/A Snow Light Snow
5:14 AM 27.5 °F 20.2 °F 25.7 °F 93% 30.12 in 1.8 mi SSE 6.9 mph - N/A Snow Light Snow
5:34 AM 27.5 °F 22.2 °F 25.7 °F 93% 30.12 in 1.8 mi SSE 4.6 mph - N/A Snow Light Snow
5:54 AM 27.5 °F 19.3 °F 25.7 °F 93% 30.12 in 3.0 mi South 8.1 mph - N/A Snow Light Snow
6:14 AM 27.5 °F 20.2 °F 25.3 °F 92% 30.11 in 5.0 mi SSE 6.9 mph - N/A   Overcast
6:34 AM 27.5 °F 21.1 °F 24.8 °F 90% 30.11 in 5.0 mi SSE 5.8 mph - N/A   Overcast
7:14 AM 27.5 °F 20.2 °F 23.7 °F 86% 30.11 in 7.0 mi SSE 6.9 mph - N/A   Overcast
7:35 AM 27.7 °F 22.4 °F 21.7 °F 78% 30.12 in 7.0 mi SSE 4.6 mph - N/A   Overcast
7:54 AM 27.9 °F - 21.6 °F 77% 30.11 in 7.0 mi Calm Calm - N/A   Overcast
8:14 AM 28.0 °F 24.2 °F 21.4 °F 76% 30.12 in 7.0 mi SE 3.5 mph - N/A   Overcast
8:34 AM 28.4 °F 23.3 °F 21.4 °F 75% 30.12 in 7.0 mi SE 4.6 mph - N/A   Overcast
8:54 AM 28.4 °F 23.3 °F 21.2 °F 74% 30.11 in 7.0 mi SE 4.6 mph - N/A   Overcast
9:14 AM 28.8 °F - 21.2 °F 73% 30.11 in 7.0 mi Calm Calm - N/A   Overcast
9:35 AM 29.1 °F 25.4 °F 21.0 °F 72% 30.11 in 10.0 mi SE 3.5 mph - N/A   Overcast
9:54 AM 29.3 °F 21.5 °F 21.2 °F 72% 30.11 in 7.0 mi SE 8.1 mph - N/A   Overcast
10:14 AM 29.7 °F 22.8 °F 21.7 °F 72% 30.11 in 4.0 mi SSE 6.9 mph - N/A Snow Light Snow
10:34 AM 29.3 °F 25.6 °F 23.2 °F 78% 30.10 in 1.2 mi SE 3.5 mph - N/A Snow Light Snow
10:54 AM 28.9 °F 21.1 °F 24.3 °F 83% 30.10 in 1.0 mi ESE 8.1 mph - N/A Snow Light Snow
11:14 AM 29.3 °F 23.2 °F 24.6 °F 83% 30.09 in 1.2 mi SE 5.8 mph - N/A Snow Light Snow
11:34 AM 30.2 °F 23.4 °F 24.8 °F 80% 30.08 in 3.0 mi ESE 6.9 mph - N/A Snow Light Snow
11:54 AM 30.4 °F 24.5 °F 24.1 °F 77% 30.08 in 4.0 mi SE 5.8 mph - N/A Snow Light Snow
12:14 PM 30.2 °F 23.4 °F 24.1 °F 78% 30.08 in 2.0 mi SE 6.9 mph - N/A Snow Light Snow
12:34 PM 30.2 °F 21.9 °F 24.6 °F 80% 30.06 in 1.8 mi SE 9.2 mph - N/A Snow Light Snow
12:54 PM 30.2 °F 22.6 °F 24.6 °F 80% 30.05 in 2.5 mi ESE 8.1 mph - N/A Snow Light Snow
1:14 PM 30.2 °F 23.4 °F 24.8 °F 80% 30.04 in 2.0 mi SE 6.9 mph - N/A Snow Light Snow
1:34 PM 30.2 °F 22.6 °F 25.3 °F 82% 30.03 in 1.2 mi ESE 8.1 mph - N/A Snow Light Snow
1:54 PM 29.8 °F 22.2 °F 25.7 °F 85% 30.01 in 0.8 mi ESE 8.1 mph - N/A Snow Light Snow
2:15 PM 30.2 °F 23.4 °F 26.6 °F 86% 30.01 in 1.0 mi ESE 6.9 mph - N/A Snow Light Snow
2:34 PM 30.0 °F 24.1 °F 26.4 °F 86% 30.00 in 0.8 mi East 5.8 mph - N/A Snow Light Snow
2:54 PM 29.8 °F 24.9 °F 27.1 °F 90% 30.00 in 0.8 mi ESE 4.6 mph - N/A Snow Light Snow
3:14 PM 29.7 °F 26.1 °F 27.3 °F 91% 29.99 in 0.5 mi ESE 3.5 mph - N/A Snow Light Snow
3:34 PM 29.7 °F 24.7 °F 27.3 °F 91% 29.99 in 0.8 mi East 4.6 mph - N/A Snow Light Snow
3:54 PM 29.7 °F 26.1 °F 27.5 °F 92% 29.99 in 0.8 mi East 3.5 mph - N/A Snow Light Snow
4:14 PM 29.3 °F 22.3 °F 26.6 °F 90% 29.98 in 0.5 mi East 6.9 mph - N/A Snow Snow
4:34 PM 28.9 °F 21.9 °F 26.4 °F 90% 29.98 in 0.8 mi East 6.9 mph - N/A Snow Light Snow
4:54 PM 28.8 °F 25.0 °F 26.4 °F 91% 29.97 in 0.8 mi East 3.5 mph - N/A Snow Light Snow
5:14 PM 28.8 °F 21.7 °F 26.2 °F 90% 29.96 in 1.0 mi East 6.9 mph - N/A Snow Light Snow
5:34 PM 28.4 °F 21.2 °F 25.7 °F 90% 29.96 in 0.5 mi East 6.9 mph - N/A Snow Light Snow
5:54 PM 28.4 °F 22.2 °F 25.7 °F 90% 29.95 in 0.8 mi East 5.8 mph - N/A Snow Light Snow
6:14 PM 28.4 °F 24.6 °F 26.2 °F 92% 29.95 in 0.5 mi ENE 3.5 mph - N/A Snow Snow
6:34 PM 28.4 °F - 26.4 °F 92% 29.95 in 1.2 mi Calm Calm - N/A Snow Light Snow
6:54 PM 28.6 °F 24.8 °F 26.6 °F 92% 29.94 in 1.2 mi NE 3.5 mph - N/A Snow Light Snow
7:14 PM 28.4 °F - 26.6 °F 93% 29.94 in 1.0 mi Calm Calm - N/A Snow Snow
7:34 PM 28.6 °F 24.8 °F 27.1 °F 94% 29.94 in 1.0 mi ENE 3.5 mph - N/A Snow Snow
7:54 PM 28.8 °F 25.0 °F 27.1 °F 94% 29.94 in 1.0 mi ENE 3.5 mph - N/A Snow Snow
8:14 PM 28.8 °F 25.0 °F 27.1 °F 94% 29.94 in 0.5 mi East 3.5 mph - N/A Snow Snow
8:34 PM 28.9 °F 23.9 °F 27.3 °F 94% 29.93 in 1.2 mi ENE 4.6 mph - N/A Snow Snow
8:54 PM 28.8 °F 25.0 °F 27.1 °F 94% 29.93 in 1.0 mi ENE 3.5 mph - N/A Snow Snow
9:14 PM 28.9 °F - 27.1 °F 93% 29.93 in 0.5 mi Calm Calm - N/A Snow Snow
9:34 PM 28.8 °F 25.0 °F 27.1 °F 94% 29.93 in 0.8 mi East 3.5 mph - N/A Snow Snow
9:55 PM 28.8 °F 25.0 °F 27.1 °F 94% 29.93 in 1.0 mi NE 3.5 mph - N/A Snow Snow
10:14 PM 28.6 °F 24.8 °F 26.8 °F 93% 29.93 in 0.5 mi ENE 3.5 mph - N/A Snow Snow
10:34 PM 28.4 °F 24.6 °F 26.6 °F 93% 29.92 in 0.8 mi NE 3.5 mph - N/A Snow Snow
10:54 PM 28.4 °F 23.3 °F 26.6 °F 93% 29.92 in 1.2 mi NE 4.6 mph - N/A Snow Light Snow
11:14 PM 28.4 °F 23.3 °F 26.6 °F 93% 29.91 in 1.5 mi NE 4.6 mph - N/A Snow Light Snow
11:34 PM 28.2 °F 22.0 °F 26.6 °F 94% 29.91 in 1.8 mi NE 5.8 mph - N/A Snow Light Snow
11:54 PM 28.0 °F 21.7 °F 26.4 °F 94% 29.90 in 1.5 mi NNE 5.8 mph - N/A Snow Light Snow